OBJECT B, 44487

Orbit data source: Space-Track

You're viewing an Uncataloged Satellite

Recently launched and/or uncataloged satellites may have evolving metadata. Metadata may include but not limited to: Owner, Maufacturer, Bus, Motor, and Mission.

OBJECT B, 44487 is a satellite owned by Guodian Gaokeji (CN) in LEO that was launched on Sat, 17 Aug 2019 UTC via a JIELONG-1 launch vehicle from the Jiuquan Satellite Launch Center, China (JSC). Unknown objects in Earth's orbit typically refer to objects detected orbiting the Earth but have not yet been identified or cataloged. These objects could be anything from previously untracked satellites, spent rocket stages, debris from satellite collisions, or even natural meteoroids temporarily captured by Earth's gravity.

Loading next visibility...
OBJECT B details
Identifier
44487, 2019-052B
Orbit
LEO
Last TLE update6 hours ago
Origin
Flag of CNGuodian Gaokeji (CN / PRC)
ManufacturerGUOG?
MissionCommercial Communications
Bus & MotorCUBESAT 6U?, Unknown motor
Mass8 kg wet, 8 kg dry
Launch date (UTC)
2019-08-17 (5 years ago)
Launch vehicle
JIELONG-1
Launch site
Jiuquan Satellite Launch Center, China (JSC)
Object typeUnknown
Shape & HBRBox, 0.3 m
Radar Cross Section0.105 m², Medium (>0.1 m² and < 1m²)

Expand to show TLE details & history

TLE from 6 hours ago
0 OBJECT B
1 44487U 19052B   24339.18885269  .00139511  00000-0  18229-2 0  9996
2 44487  97.3926  53.5776 0006754  33.4553 326.7128 15.58154773293125
Epoch: 2024-12-04T04:31Z
Definitive object data (Epoch: 2024-12-04T04:31:56.872Z)
Latitude-0.00005°
Longitude-87.89694°
Altitude392.317 km
Speed7.677 km/s
True Right ascension03h 34m 18s
True Declination0° 00' 00"
Sunlit
Object was in full shadow at TLE epoch
Visualization TLE readout
Latitude-77.32339°
Longitude57.34822°
Altitude423.618 km
Speed7.654 km/s
Apparent Right ascension18h 59m 26s
Apparent Declination-65° 56' 52"
Sunlit
Object is in daylight
Visualization observer readout
Local Sidereal Time08:10:26
Azimuth164.606° S
Elevation-62.088°
Doppler factor1
Orbital elements
Apogee altitude394.483 km
Perigee altitude385.341 km
Semi-major axis6,768.049 km
Eccentricity0.0006754
Inclination97.3926°
RAAN53.5776°
Arg. of periapsis33.4553°
True anomaly326.67029°
Mean anomaly326.7128°
Eccentric anomaly326.69155°
Mean motion3.89805 °/min
BSTAR0.0018229
Orbital period92.35 mins
Loading maneuver chart data...
Loading historical data...
Loading historical data...
Loading historical data...
Loading historical data...
Loading historical data...
Loading historical data...
Loading historical data...
Other satellites on launch #52 in the year 2019 (2019-08-17 UTC)

OBJECT B Visibility forecast

Observer location: undefined°, undefined

Span
Click to sort rows by Start time (UTC) header in descending order
Start Az.
Max El. time (UTC)
Max El. Az.
Max El.
End time (UTC)
End Az.
4 mins2024-12-04 17:26:01.329Z51.059° ENE2024-12-04 17:28:01.329Z101.387° ESE20.308°2024-12-04 17:30:01.329Z146.451° SSE
4 mins2024-12-05 05:20:01.329Z177.117° S2024-12-05 05:22:01.329Z307.614° NW41.933°2024-12-05 05:24:01.329Z342.33° N
|